| time (UTC) | temp F | wind direction | speed MPH | gust MPH | rain 1hr in | rain 24hr in | rain mn in | humidity % | barometer mb |
| 20260510001900 | 47 | 104 | 2.0 | 3.0 | 0.00 | 0.00 | 0.00 | 73 | 4093.2 |
| 20260510001358 | 47 | 345 | 3.0 | 8.0 | 0.00 | 0.00 | 0.00 | 71 | 4093.2 |
| 20260510000854 | 47 | 16 | 3.0 | 5.0 | 0.00 | 0.00 | 0.00 | 70 | 4092.8 |
| 20260510000351 | 47 | 11 | 6.0 | 9.0 | 0.00 | 0.00 | 0.00 | 71 | 4092.8 |
| 20260509235848 | 47 | 53 | 1.0 | 1.0 | 0.00 | 0.00 | 0.00 | 73 | 4092.5 |
| 20260509235344 | 47 | 355 | 1.0 | 1.0 | 0.00 | 0.00 | 0.00 | 74 | 4092.5 |
| 20260509234841 | 47 | 250 | 1.0 | 2.0 | 0.00 | 0.00 | 0.00 | 73 | 4092.5 |
| 20260509234337 | 47 | 52 | 2.0 | 2.0 | 0.00 | 0.00 | 0.00 | 78 | 4092.1 |
| 20260509233836 | 47 | 26 | 2.0 | 3.0 | 0.00 | 0.00 | 0.00 | 80 | 4092.1 |
| 20260509233333 | 47 | 112 | 1.0 | 2.0 | 0.00 | 0.00 | 0.00 | 80 | 4092.1 |
| 20260509232829 | 47 | 317 | 1.0 | 1.0 | 0.00 | 0.00 | 0.00 | 80 | 4092.1 |
| 20260509232327 | 47 | 41 | 2.0 | 3.0 | 0.00 | 0.00 | 0.00 | 79 | 4091.8 |
| 20260509231823 | 48 | 76 | 0.0 | 1.0 | 0.00 | 0.00 | 0.00 | 80 | 4092.1 |
| 20260509231319 | 49 | 352 | 0.0 | 1.0 | 0.00 | 0.00 | 0.00 | 78 | 4091.8 |
| 20260509230818 | 49 | 38 | 3.0 | 5.0 | 0.00 | 0.00 | 0.00 | 71 | 4091.5 |
| 20260509230314 | 50 | 341 | 5.0 | 8.0 | 0.00 | 0.00 | 0.00 | 70 | 4091.5 |
| 20260509225809 | 50 | 344 | 5.0 | 7.0 | 0.00 | 0.00 | 0.00 | 70 | 4091.1 |
| 20260509225306 | 51 | 327 | 2.0 | 3.0 | 0.00 | 0.00 | 0.00 | 70 | 4091.1 |
| 20260509224802 | 51 | 323 | 5.0 | 6.0 | 0.00 | 0.00 | 0.00 | 69 | 4090.8 |
| 20260509224259 | 51 | 76 | 1.0 | 2.0 | 0.00 | 0.00 | 0.00 | 70 | 4090.8 |
| 20260509223755 | 51 | 58 | 3.0 | 5.0 | 0.00 | 0.00 | 0.00 | 68 | 4090.5 |
| 20260509223253 | 51 | 213 | 2.0 | 3.0 | 0.00 | 0.00 | 0.00 | 71 | 4090.5 |
| 20260509222749 | 51 | 79 | 2.0 | 2.0 | 0.00 | 0.00 | 0.00 | 71 | 4090.5 |
| 20260509222245 | 51 | 52 | 3.0 | 5.0 | 0.00 | 0.00 | 0.00 | 68 | 4090.5 |
| 20260509221740 | 51 | 126 | 1.0 | 2.0 | 0.00 | 0.00 | 0.00 | 74 | 4090.1 |
| 20260509221237 | 51 | 24 | 1.0 | 1.0 | 0.00 | 0.00 | 0.00 | 73 | 4089.8 |
| 20260509220733 | 51 | 339 | 2.0 | 3.0 | 0.00 | 0.00 | 0.00 | 73 | 4089.8 |
| 20260509220230 | 50 | 310 | 3.0 | 5.0 | 0.00 | 0.00 | 0.00 | 74 | 4089.8 |
| 20260509215725 | 49 | 351 | 1.0 | 2.0 | 0.00 | 0.00 | 0.00 | 77 | 4089.8 |
| 20260509215221 | 50 | 325 | 2.0 | 3.0 | 0.00 | 0.00 | 0.00 | 77 | 4089.4 |
| 20260509214719 | 51 | 307 | 1.0 | 2.0 | 0.00 | 0.00 | 0.00 | 74 | 4089.4 |
| 20260509214216 | 51 | 294 | 2.0 | 2.0 | 0.00 | 0.00 | 0.00 | 74 | 4089.1 |
| 20260509213713 | 51 | 287 | 1.0 | 2.0 | 0.00 | 0.00 | 0.00 | 74 | 4089.1 |
| 20260509213208 | 51 | 320 | 0.0 | 1.0 | 0.00 | 0.00 | 0.00 | 73 | 4089.1 |
| 20260509212707 | 51 | 317 | 1.0 | 2.0 | 0.00 | 0.00 | 0.00 | 74 | 4089.1 |
| 20260509212203 | 51 | 329 | 1.0 | 2.0 | 0.00 | 0.00 | 0.00 | 73 | 4089.1 |
| 20260509211659 | 52 | 315 | 2.0 | 2.0 | 0.00 | 0.00 | 0.00 | 73 | 4088.7 |
| 20260509211155 | 52 | 290 | 2.0 | 2.0 | 0.00 | 0.00 | 0.00 | 70 | 4088.7 |
| 20260509210652 | 52 | 31 | 0.0 | 1.0 | 0.00 | 0.00 | 0.00 | 69 | 4088.7 |
| 20260509210150 | 52 | 327 | 3.0 | 3.0 | 0.00 | 0.00 | 0.00 | 67 | 4088.7 |
| 20260509205644 | 52 | 113 | 1.0 | 2.0 | 0.00 | 0.00 | 0.00 | 67 | 4088.3 |
| 20260509205139 | 52 | 315 | 2.0 | 2.0 | 0.00 | 0.00 | 0.00 | 67 | 4088.7 |
| 20260509204635 | 52 | 349 | 3.0 | 3.0 | 0.00 | 0.00 | 0.00 | 69 | 4088.7 |
| 20260509204131 | 52 | 1 | 4.0 | 7.0 | 0.00 | 0.00 | 0.00 | 69 | 4088.3 |
| 20260509203627 | 52 | 349 | 2.0 | 3.0 | 0.00 | 0.00 | 0.00 | 69 | 4088.0 |
| 20260509203126 | 51 | 340 | 2.0 | 3.0 | 0.00 | 0.00 | 0.00 | 70 | 4088.0 |
| 20260509202626 | 51 | 355 | 1.0 | 2.0 | 0.00 | 0.00 | 0.00 | 73 | 4088.0 |
| 20260509202121 | 52 | 354 | 1.0 | 1.0 | 0.00 | 0.00 | 0.00 | 72 | 4088.0 |
| 20260509201616 | 52 | 323 | 2.0 | 2.0 | 0.00 | 0.00 | 0.00 | 72 | 4087.6 |
| 20260509201114 | 53 | 349 | 1.0 | 2.0 | 0.00 | 0.00 | 0.00 | 71 | 4087.6 |
| 20260509200609 | 51 | 50 | 2.0 | 3.0 | 0.00 | 0.00 | 0.00 | 73 | 4087.6 |
| 20260509200105 | 51 | 17 | 1.0 | 1.0 | 0.00 | 0.00 | 0.00 | 74 | 4087.3 |
| 20260509195600 | 52 | 341 | 2.0 | 3.0 | 0.00 | 0.00 | 0.00 | 74 | 4087.3 |
| 20260509195050 | 53 | 41 | 0.0 | 0.0 | 0.00 | 0.00 | 0.00 | 69 | 4087.0 |
| 20260509194549 | 53 | 320 | 2.0 | 2.0 | 0.00 | 0.00 | 0.00 | 70 | 4087.0 |
| 20260509194048 | 55 | 318 | 1.0 | 2.0 | 0.00 | 0.00 | 0.00 | 67 | 4087.0 |
| 20260509193543 | 55 | 350 | 2.0 | 2.0 | 0.00 | 0.00 | 0.00 | 67 | 4087.0 |
| 20260509193039 | 56 | 30 | 2.0 | 2.0 | 0.00 | 0.00 | 0.00 | 64 | 4086.6 |
| 20260509192536 | 55 | 346 | 0.0 | 1.0 | 0.00 | 0.00 | 0.00 | 65 | 4087.0 |
| 20260509192031 | 55 | 31 | 2.0 | 2.0 | 0.00 | 0.00 | 0.00 | 67 | 4086.6 |
| 20260509191525 | 55 | 339 | 1.0 | 2.0 | 0.00 | 0.00 | 0.00 | 67 | 4086.3 |
| 20260509191021 | 55 | 33 | 1.0 | 2.0 | 0.00 | 0.00 | 0.00 | 68 | 4086.3 |
| 20260509190518 | 54 | 265 | 1.0 | 2.0 | 0.00 | 0.00 | 0.00 | 70 | 4086.3 |
| 20260509190017 | 54 | 335 | 0.0 | 1.0 | 0.00 | 0.00 | 0.00 | 71 | 4086.3 |
| 20260509185513 | 55 | 297 | 3.0 | 3.0 | 0.00 | 0.00 | 0.00 | 72 | 4086.0 |
| 20260509185009 | 56 | 284 | 1.0 | 2.0 | 0.00 | 0.00 | 0.00 | 69 | 4086.0 |
| 20260509184508 | 56 | 346 | 3.0 | 3.0 | 0.00 | 0.00 | 0.00 | 67 | 4086.3 |
| 20260509184004 | 54 | 23 | 1.0 | 1.0 | 0.00 | 0.00 | 0.00 | 70 | 4086.0 |
| 20260509183459 | 54 | 24 | 1.0 | 1.0 | 0.00 | 0.00 | 0.00 | 74 | 4086.0 |
| 20260509182955 | 53 | 30 | 1.0 | 1.0 | 0.00 | 0.00 | 0.00 | 79 | 4086.0 |
| 20260509182452 | 53 | 25 | 1.0 | 1.0 | 0.00 | 0.00 | 0.00 | 79 | 4086.0 |
| 20260509181949 | 54 | 39 | 1.0 | 1.0 | 0.00 | 0.00 | 0.00 | 78 | 4085.6 |
| 20260509181447 | 54 | 54 | 1.0 | 2.0 | 0.00 | 0.00 | 0.00 | 78 | 4085.6 |
| 20260509180945 | 54 | 61 | 0.0 | 0.0 | 0.00 | 0.00 | 0.00 | 80 | 4085.6 |
| 20260509180440 | 53 | 339 | 0.0 | 0.0 | 0.00 | 0.00 | 0.00 | 81 | 4085.3 |
| 20260509175937 | 52 | 339 | 0.0 | 0.0 | 0.00 | 0.00 | 0.00 | 81 | 4085.3 |
| 20260509175433 | 53 | 0 | 0.0 | 0.0 | 0.00 | 0.00 | 0.00 | 81 | 4085.3 |
| 20260509174930 | 53 | 0 | 0.0 | 0.0 | 0.00 | 0.00 | 0.00 | 81 | 4085.3 |
| 20260509174426 | 53 | 0 | 0.0 | 0.0 | 0.00 | 0.00 | 0.00 | 80 | 4085.3 |
| 20260509173922 | 54 | 0 | 0.0 | 0.0 | 0.00 | 0.00 | 0.00 | 79 | 4084.9 |
| 20260509173421 | 53 | 358 | 0.0 | 1.0 | 0.00 | 0.00 | 0.00 | 79 | 4085.3 |
| 20260509172918 | 52 | 25 | 2.0 | 2.0 | 0.00 | 0.00 | 0.00 | 80 | 4084.9 |
| 20260509172415 | 52 | 344 | 1.0 | 1.0 | 0.00 | 0.00 | 0.00 | 80 | 4084.9 |
| 20260509171911 | 52 | 351 | 0.0 | 1.0 | 0.00 | 0.00 | 0.00 | 81 | 4084.9 |
| 20260509171407 | 53 | 325 | 1.0 | 2.0 | 0.00 | 0.00 | 0.00 | 80 | 4084.9 |
| 20260509170903 | 53 | 354 | 1.0 | 2.0 | 0.00 | 0.00 | 0.00 | 81 | 4084.9 |
| 20260509170359 | 52 | 35 | 2.0 | 2.0 | 0.00 | 0.00 | 0.00 | 82 | 4084.6 |
| 20260509165855 | 51 | 33 | 1.0 | 2.0 | 0.00 | 0.00 | 0.00 | 83 | 4084.9 |
| 20260509165349 | 50 | 328 | 1.0 | 1.0 | 0.00 | 0.00 | 0.00 | 85 | 4084.6 |
| 20260509164845 | 49 | 76 | 1.0 | 2.0 | 0.00 | 0.00 | 0.00 | 87 | 4084.6 |
| 20260509164341 | 49 | 14 | 7.0 | 9.0 | 0.00 | 0.00 | 0.00 | 87 | 4084.6 |
| 20260509163837 | 50 | 331 | 4.0 | 5.0 | 0.00 | 0.00 | 0.00 | 87 | 4084.6 |
| 20260509163334 | 50 | 86 | 0.0 | 0.0 | 0.00 | 0.00 | 0.00 | 87 | 4084.6 |
| 20260509162833 | 50 | 110 | 1.0 | 1.0 | 0.00 | 0.00 | 0.00 | 87 | 4084.3 |
| 20260509162326 | 50 | 357 | 0.0 | 0.0 | 0.00 | 0.00 | 0.00 | 88 | 4084.3 |
| 20260509161823 | 50 | 216 | 1.0 | 2.0 | 0.00 | 0.00 | 0.00 | 87 | 4084.3 |
| 20260509161319 | 52 | 1 | 2.0 | 3.0 | 0.00 | 0.00 | 0.00 | 83 | 4084.3 |
| 20260509160814 | 51 | 43 | 0.0 | 1.0 | 0.00 | 0.00 | 0.00 | 84 | 4084.3 |
| 20260509160311 | 50 | 345 | 2.0 | 3.0 | 0.00 | 0.00 | 0.00 | 86 | 4084.3 |
| 20260509155806 | 50 | 12 | 2.0 | 2.0 | 0.00 | 0.00 | 0.00 | 86 | 4084.3 |
| 20260509155306 | 50 | 41 | 2.0 | 2.0 | 0.00 | 0.00 | 0.00 | 86 | 4084.3 |
| 20260509154759 | 50 | 33 | 2.0 | 2.0 | 0.00 | 0.00 | 0.00 | 86 | 4083.9 |
| 20260509154256 | 49 | 56 | 0.0 | 1.0 | 0.00 | 0.00 | 0.00 | 90 | 4083.9 |
| 20260509153753 | 48 | 359 | 1.0 | 2.0 | 0.00 | 0.00 | 0.00 | 90 | 4084.3 |
| 20260509153249 | 49 | 39 | 1.0 | 1.0 | 0.00 | 0.00 | 0.00 | 90 | 4083.6 |
| 20260509152746 | 49 | 41 | 2.0 | 2.0 | 0.00 | 0.00 | 0.00 | 90 | 4083.6 |
| 20260509152242 | 48 | 44 | 1.0 | 1.0 | 0.00 | 0.00 | 0.00 | 90 | 4083.6 |
| 20260509151739 | 49 | 104 | 1.0 | 2.0 | 0.00 | 0.00 | 0.00 | 88 | 4083.9 |
| 20260509151236 | 49 | 75 | 0.0 | 1.0 | 0.00 | 0.00 | 0.00 | 88 | 4083.9 |
| 20260509150734 | 49 | 241 | 0.0 | 1.0 | 0.00 | 0.00 | 0.00 | 88 | 4083.9 |
| 20260509150232 | 48 | 260 | 1.0 | 1.0 | 0.00 | 0.00 | 0.00 | 89 | 4083.9 |
| 20260509145728 | 49 | 49 | 0.0 | 1.0 | 0.00 | 0.00 | 0.00 | 88 | 4083.6 |
| 20260509145223 | 50 | 329 | 2.0 | 2.0 | 0.00 | 0.00 | 0.00 | 87 | 4083.6 |
| 20260509144720 | 50 | 354 | 1.0 | 1.0 | 0.00 | 0.00 | 0.00 | 86 | 4083.6 |
| 20260509144217 | 51 | 34 | 1.0 | 2.0 | 0.00 | 0.00 | 0.00 | 83 | 4083.6 |
| 20260509143714 | 53 | 58 | 1.0 | 2.0 | 0.00 | 0.00 | 0.00 | 80 | 4083.6 |
| 20260509143211 | 54 | 203 | 3.0 | 5.0 | 0.00 | 0.00 | 0.00 | 76 | 4083.6 |
| 20260509142706 | 54 | 87 | 1.0 | 2.0 | 0.00 | 0.00 | 0.00 | 75 | 4083.2 |
| 20260509142203 | 57 | 322 | 1.0 | 2.0 | 0.00 | 0.00 | 0.00 | 68 | 4083.2 |
| 20260509141659 | 55 | 162 | 1.0 | 1.0 | 0.00 | 0.00 | 0.00 | 70 | 4083.2 |
| 20260509141156 | 55 | 147 | 1.0 | 1.0 | 0.00 | 0.00 | 0.00 | 70 | 4083.2 |
| 20260509140653 | 55 | 146 | 0.0 | 1.0 | 0.00 | 0.00 | 0.00 | 66 | 4083.2 |
| 20260509140151 | 53 | 146 | 0.0 | 0.0 | 0.00 | 0.00 | 0.00 | 68 | 4083.2 |
| 20260509135648 | 54 | 146 | 2.0 | 2.0 | 0.00 | 0.00 | 0.00 | 68 | 4083.2 |
| 20260509135146 | 55 | 146 | 3.0 | 3.0 | 0.00 | 0.00 | 0.00 | 68 | 4083.2 |
| 20260509134642 | 55 | 123 | 0.0 | 0.0 | 0.00 | 0.00 | 0.00 | 69 | 4083.2 |
| 20260509134140 | 54 | 124 | 0.0 | 0.0 | 0.00 | 0.00 | 0.00 | 73 | 4083.2 |
| 20260509133637 | 53 | 124 | 0.0 | 0.0 | 0.00 | 0.00 | 0.00 | 72 | 4083.2 |
| 20260509133134 | 52 | 124 | 0.0 | 0.0 | 0.00 | 0.00 | 0.00 | 68 | 4083.6 |
| 20260509132632 | 51 | 124 | 0.0 | 0.0 | 0.00 | 0.00 | 0.00 | 72 | 4083.6 |
| 20260509132130 | 51 | 125 | 2.0 | 2.0 | 0.00 | 0.00 | 0.00 | 70 | 4083.6 |
| 20260509131626 | 51 | 125 | 0.0 | 0.0 | 0.00 | 0.00 | 0.00 | 70 | 4083.6 |
| 20260509131123 | 51 | 125 | 0.0 | 0.0 | 0.00 | 0.00 | 0.00 | 70 | 4083.9 |
| 20260509130619 | 51 | 125 | 0.0 | 0.0 | 0.00 | 0.00 | 0.00 | 71 | 4083.9 |
| 20260509130115 | 51 | 125 | 0.0 | 0.0 | 0.00 | 0.00 | 0.00 | 71 | 4083.9 |
| 20260509125612 | 51 | 124 | 0.0 | 0.0 | 0.00 | 0.00 | 0.00 | 73 | 4083.6 |
| 20260509125109 | 51 | 129 | 3.0 | 3.0 | 0.00 | 0.00 | 0.00 | 71 | 4083.6 |
| 20260509124605 | 50 | 129 | 0.0 | 1.0 | 0.00 | 0.00 | 0.00 | 72 | 4083.9 |
| 20260509124102 | 50 | 150 | 1.0 | 1.0 | 0.00 | 0.00 | 0.00 | 71 | 4083.6 |
| 20260509123600 | 50 | 155 | 2.0 | 2.0 | 0.00 | 0.00 | 0.00 | 72 | 4083.9 |
| 20260509123057 | 50 | 158 | 0.0 | 0.0 | 0.00 | 0.00 | 0.00 | 72 | 4083.9 |
| 20260509122553 | 50 | 158 | 0.0 | 0.0 | 0.00 | 0.00 | 0.00 | 73 | 4083.9 |
| 20260509122050 | 50 | 158 | 2.0 | 2.0 | 0.00 | 0.00 | 0.00 | 73 | 4083.9 |
| 20260509121546 | 50 | 126 | 0.0 | 0.0 | 0.00 | 0.00 | 0.00 | 71 | 4083.9 |
| 20260509121048 | 50 | 125 | 0.0 | 1.0 | 0.00 | 0.00 | 0.00 | 72 | 4083.9 |
| 20260509120542 | 50 | 127 | 0.0 | 1.0 | 0.00 | 0.00 | 0.00 | 72 | 4083.6 |
| 20260509120040 | 49 | 139 | 1.0 | 1.0 | 0.00 | 0.00 | 0.00 | 73 | 4083.9 |
| 20260509115537 | 49 | 141 | 3.0 | 3.0 | 0.00 | 0.00 | 0.00 | 75 | 4083.9 |
| 20260509115035 | 49 | 115 | 4.0 | 5.0 | 0.00 | 0.00 | 0.00 | 75 | 4084.3 |
| 20260509114532 | 48 | 141 | 3.0 | 5.0 | 0.00 | 0.00 | 0.00 | 76 | 4084.3 |
| 20260509114031 | 49 | 143 | 5.0 | 5.0 | 0.00 | 0.00 | 0.00 | 76 | 4084.3 |
| 20260509113529 | 49 | 138 | 4.0 | 7.0 | 0.00 | 0.00 | 0.00 | 74 | 4083.9 |
| 20260509113027 | 49 | 139 | 3.0 | 3.0 | 0.00 | 0.00 | 0.00 | 72 | 4083.9 |
| 20260509112523 | 49 | 136 | 4.0 | 5.0 | 0.00 | 0.00 | 0.00 | 72 | 4083.9 |
| 20260509112020 | 49 | 127 | 2.0 | 3.0 | 0.00 | 0.00 | 0.00 | 71 | 4084.3 |
| 20260509111517 | 49 | 134 | 5.0 | 5.0 | 0.00 | 0.00 | 0.00 | 72 | 4084.3 |
| 20260509111014 | 49 | 129 | 5.0 | 6.0 | 0.00 | 0.00 | 0.00 | 73 | 4084.3 |
| 20260509110510 | 49 | 126 | 4.0 | 5.0 | 0.00 | 0.00 | 0.00 | 71 | 4084.3 |
| 20260509110008 | 48 | 127 | 2.0 | 2.0 | 0.00 | 0.00 | 0.00 | 75 | 4084.6 |
| 20260509105506 | 47 | 125 | 1.0 | 2.0 | 0.00 | 0.00 | 0.00 | 77 | 4084.3 |
| 20260509105003 | 47 | 130 | 3.0 | 3.0 | 0.00 | 0.00 | 0.00 | 81 | 4084.3 |
| 20260509104500 | 47 | 173 | 3.0 | 3.0 | 0.00 | 0.00 | 0.00 | 81 | 4084.6 |
| 20260509103957 | 47 | 168 | 3.0 | 3.0 | 0.00 | 0.00 | 0.00 | 80 | 4084.3 |
| 20260509103455 | 47 | 198 | 5.0 | 6.0 | 0.00 | 0.00 | 0.00 | 79 | 4084.9 |
| 20260509102953 | 47 | 148 | 0.0 | 1.0 | 0.00 | 0.00 | 0.00 | 77 | 4084.3 |
| 20260509102450 | 48 | 154 | 6.0 | 7.0 | 0.00 | 0.00 | 0.00 | 74 | 4084.6 |
| 20260509101946 | 47 | 165 | 6.0 | 7.0 | 0.00 | 0.00 | 0.00 | 76 | 4084.6 |
| 20260509101442 | 47 | 143 | 5.0 | 6.0 | 0.00 | 0.00 | 0.00 | 75 | 4084.6 |
| 20260509100940 | 46 | 143 | 5.0 | 6.0 | 0.00 | 0.00 | 0.00 | 77 | 4084.9 |
| 20260509100437 | 46 | 132 | 3.0 | 3.0 | 0.00 | 0.00 | 0.00 | 78 | 4085.3 |
| 20260509095933 | 46 | 122 | 5.0 | 6.0 | 0.00 | 0.00 | 0.00 | 76 | 4084.9 |
| 20260509095430 | 47 | 132 | 4.0 | 5.0 | 0.00 | 0.00 | 0.00 | 77 | 4085.3 |
| 20260509094928 | 47 | 135 | 4.0 | 5.0 | 0.00 | 0.00 | 0.00 | 77 | 4085.3 |
| 20260509094424 | 47 | 114 | 5.0 | 6.0 | 0.00 | 0.00 | 0.00 | 75 | 4085.3 |
| 20260509093922 | 47 | 131 | 1.0 | 1.0 | 0.00 | 0.00 | 0.00 | 74 | 4085.3 |
| 20260509093419 | 47 | 127 | 3.0 | 3.0 | 0.00 | 0.00 | 0.00 | 73 | 4085.6 |
| 20260509092917 | 47 | 132 | 3.0 | 3.0 | 0.00 | 0.00 | 0.00 | 75 | 4085.6 |
| 20260509092415 | 47 | 137 | 4.0 | 5.0 | 0.00 | 0.00 | 0.00 | 75 | 4085.6 |
| 20260509091913 | 48 | 121 | 3.0 | 3.0 | 0.00 | 0.00 | 0.00 | 74 | 4085.6 |
| 20260509091409 | 48 | 143 | 5.0 | 6.0 | 0.00 | 0.00 | 0.00 | 75 | 4086.0 |
| 20260509090907 | 48 | 143 | 4.0 | 5.0 | 0.00 | 0.00 | 0.00 | 75 | 4086.0 |
| 20260509090404 | 48 | 136 | 6.0 | 7.0 | 0.00 | 0.00 | 0.00 | 74 | 4085.6 |
| 20260509085902 | 48 | 144 | 5.0 | 6.0 | 0.00 | 0.00 | 0.00 | 74 | 4085.6 |
| 20260509085359 | 47 | 131 | 3.0 | 3.0 | 0.00 | 0.00 | 0.00 | 74 | 4086.0 |
| 20260509084854 | 47 | 118 | 3.0 | 3.0 | 0.00 | 0.00 | 0.00 | 72 | 4086.0 |
| 20260509084351 | 47 | 118 | 0.0 | 0.0 | 0.00 | 0.00 | 0.00 | 73 | 4086.0 |
| 20260509083849 | 47 | 118 | 0.0 | 1.0 | 0.00 | 0.00 | 0.00 | 73 | 4086.0 |
| 20260509083346 | 47 | 116 | 1.0 | 1.0 | 0.00 | 0.00 | 0.00 | 73 | 4086.3 |
| 20260509082842 | 47 | 142 | 2.0 | 3.0 | 0.00 | 0.00 | 0.00 | 73 | 4086.0 |
| 20260509082339 | 47 | 112 | 4.0 | 6.0 | 0.00 | 0.00 | 0.00 | 73 | 4086.3 |
| 20260509081837 | 47 | 105 | 1.0 | 1.0 | 0.00 | 0.00 | 0.00 | 73 | 4086.3 |
| 20260509081334 | 47 | 121 | 1.0 | 1.0 | 0.00 | 0.00 | 0.00 | 72 | 4086.3 |
| 20260509080832 | 47 | 124 | 0.0 | 1.0 | 0.00 | 0.00 | 0.00 | 73 | 4086.3 |
| 20260509080329 | 47 | 134 | 0.0 | 0.0 | 0.00 | 0.00 | 0.00 | 73 | 4086.6 |
| 20260509075827 | 47 | 110 | 1.0 | 1.0 | 0.00 | 0.00 | 0.00 | 74 | 4086.6 |
| 20260509075324 | 47 | 135 | 0.0 | 0.0 | 0.00 | 0.00 | 0.00 | 74 | 4086.6 |
| 20260509074821 | 47 | 120 | 2.0 | 3.0 | 0.00 | 0.00 | 0.00 | 73 | 4087.0 |
| 20260509074319 | 48 | 107 | 3.0 | 3.0 | 0.00 | 0.00 | 0.00 | 72 | 4087.0 |
| 20260509073815 | 48 | 129 | 3.0 | 3.0 | 0.00 | 0.00 | 0.00 | 71 | 4087.0 |
| 20260509073312 | 48 | 137 | 7.0 | 8.0 | 0.00 | 0.00 | 0.00 | 71 | 4087.0 |
| 20260509072808 | 47 | 107 | 4.0 | 6.0 | 0.00 | 0.00 | 0.00 | 73 | 4087.0 |
| 20260509072306 | 46 | 123 | 1.0 | 2.0 | 0.00 | 0.00 | 0.00 | 74 | 4087.3 |
| 20260509071801 | 46 | 136 | 3.0 | 3.0 | 0.00 | 0.00 | 0.00 | 74 | 4087.0 |
| 20260509071258 | 46 | 126 | 2.0 | 2.0 | 0.00 | 0.00 | 0.00 | 74 | 4087.6 |
| 20260509070755 | 46 | 126 | 3.0 | 3.0 | 0.00 | 0.00 | 0.00 | 74 | 4087.3 |
| 20260509070252 | 46 | 114 | 1.0 | 2.0 | 0.00 | 0.00 | 0.00 | 74 | 4087.6 |
| 20260509065748 | 46 | 116 | 1.0 | 2.0 | 0.00 | 0.00 | 0.00 | 73 | 4087.6 |
| 20260509065245 | 45 | 106 | 1.0 | 1.0 | 0.00 | 0.00 | 0.00 | 76 | 4088.0 |
| 20260509064741 | 45 | 96 | 0.0 | 1.0 | 0.00 | 0.00 | 0.00 | 76 | 4087.6 |
| 20260509064239 | 44 | 115 | 1.0 | 2.0 | 0.00 | 0.00 | 0.00 | 78 | 4088.0 |
| 20260509063736 | 44 | 120 | 1.0 | 2.0 | 0.00 | 0.00 | 0.00 | 78 | 4088.3 |
| 20260509063232 | 44 | 121 | 0.0 | 1.0 | 0.00 | 0.00 | 0.00 | 77 | 4088.0 |
| 20260509062730 | 44 | 111 | 0.0 | 0.0 | 0.00 | 0.00 | 0.00 | 77 | 4088.3 |
| 20260509062226 | 44 | 117 | 0.0 | 0.0 | 0.00 | 0.00 | 0.00 | 77 | 4088.7 |
| 20260509061724 | 44 | 120 | 0.0 | 0.0 | 0.00 | 0.00 | 0.00 | 77 | 4088.7 |
| 20260509061221 | 44 | 119 | 0.0 | 1.0 | 0.00 | 0.00 | 0.00 | 76 | 4088.7 |
| 20260509060719 | 44 | 117 | 0.0 | 0.0 | 0.00 | 0.00 | 0.00 | 77 | 4088.7 |
| 20260509060214 | 44 | 117 | 1.0 | 1.0 | 0.00 | 0.00 | 0.00 | 76 | 4088.7 |
| 20260509055710 | 44 | 126 | 1.0 | 2.0 | 0.00 | 0.00 | 0.00 | 76 | 4089.1 |
| 20260509055206 | 44 | 119 | 0.0 | 0.0 | 0.00 | 0.00 | 0.00 | 75 | 4089.1 |
| 20260509054703 | 44 | 117 | 0.0 | 1.0 | 0.00 | 0.00 | 0.00 | 76 | 4089.1 |
| 20260509054201 | 44 | 109 | 0.0 | 0.0 | 0.00 | 0.00 | 0.00 | 76 | 4089.4 |
| 20260509053659 | 45 | 106 | 0.0 | 0.0 | 0.00 | 0.00 | 0.00 | 76 | 4089.1 |
| 20260509053155 | 45 | 98 | 1.0 | 1.0 | 0.00 | 0.00 | 0.00 | 75 | 4089.4 |
| 20260509052653 | 44 | 121 | 1.0 | 2.0 | 0.00 | 0.00 | 0.00 | 76 | 4089.4 |
| 20260509052151 | 45 | 122 | 1.0 | 1.0 | 0.00 | 0.00 | 0.00 | 76 | 4089.4 |
| 20260509051648 | 45 | 114 | 1.0 | 2.0 | 0.00 | 0.00 | 0.00 | 75 | 4089.8 |
| 20260509051145 | 45 | 113 | 0.0 | 1.0 | 0.00 | 0.00 | 0.00 | 76 | 4089.8 |
| 20260509050642 | 45 | 114 | 0.0 | 0.0 | 0.00 | 0.00 | 0.00 | 76 | 4089.8 |
| 20260509050139 | 45 | 114 | 1.0 | 1.0 | 0.00 | 0.00 | 0.00 | 76 | 4090.1 |
| 20260509045637 | 45 | 119 | 0.0 | 0.0 | 0.00 | 0.00 | 0.00 | 78 | 4089.8 |
| 20260509045133 | 45 | 120 | 1.0 | 1.0 | 0.00 | 0.00 | 0.00 | 77 | 4090.1 |
| 20260509044630 | 46 | 121 | 0.0 | 0.0 | 0.00 | 0.00 | 0.00 | 76 | 4090.1 |
| 20260509044128 | 46 | 121 | 0.0 | 0.0 | 0.00 | 0.00 | 0.00 | 74 | 4090.5 |
| 20260509043624 | 46 | 129 | 0.0 | 1.0 | 0.00 | 0.00 | 0.00 | 75 | 4090.5 |
| 20260509043120 | 46 | 125 | 0.0 | 0.0 | 0.00 | 0.00 | 0.00 | 74 | 4090.5 |
| 20260509042617 | 46 | 122 | 1.0 | 2.0 | 0.00 | 0.00 | 0.00 | 74 | 4090.5 |
| 20260509042112 | 45 | 109 | 0.0 | 0.0 | 0.00 | 0.00 | 0.00 | 76 | 4090.5 |
| 20260509041609 | 45 | 109 | 0.0 | 0.0 | 0.00 | 0.00 | 0.00 | 76 | 4090.8 |
| 20260509041107 | 45 | 109 | 0.0 | 0.0 | 0.00 | 0.00 | 0.00 | 77 | 4090.8 |
| 20260509040605 | 45 | 109 | 0.0 | 0.0 | 0.00 | 0.00 | 0.00 | 77 | 4090.8 |
| 20260509035558 | 45 | 109 | 1.0 | 1.0 | 0.00 | 0.00 | 0.00 | 75 | 4090.8 |
| 20260509035055 | 45 | 108 | 0.0 | 0.0 | 0.00 | 0.00 | 0.00 | 76 | 4090.8 |
| 20260509034553 | 45 | 108 | 0.0 | 0.0 | 0.00 | 0.00 | 0.00 | 76 | 4091.1 |
| 20260509034050 | 45 | 108 | 0.0 | 0.0 | 0.00 | 0.00 | 0.00 | 75 | 4091.1 |
| 20260509033547 | 45 | 108 | 0.0 | 0.0 | 0.00 | 0.00 | 0.00 | 75 | 4091.1 |
| 20260509033044 | 45 | 119 | 2.0 | 3.0 | 0.00 | 0.00 | 0.00 | 73 | 4091.1 |
| 20260509032541 | 45 | 121 | 0.0 | 0.0 | 0.00 | 0.00 | 0.00 | 74 | 4091.1 |
| 20260509032038 | 45 | 121 | 1.0 | 2.0 | 0.00 | 0.00 | 0.00 | 73 | 4091.1 |
| 20260509031536 | 45 | 118 | 1.0 | 2.0 | 0.00 | 0.00 | 0.00 | 72 | 4091.5 |
| 20260509031033 | 45 | 121 | 0.0 | 0.0 | 0.00 | 0.00 | 0.00 | 75 | 4091.5 |
| 20260509030531 | 45 | 121 | 0.0 | 0.0 | 0.00 | 0.00 | 0.00 | 73 | 4091.5 |
| 20260509030027 | 45 | 120 | 0.0 | 0.0 | 0.00 | 0.00 | 0.00 | 73 | 4091.8 |
| 20260509025523 | 45 | 120 | 0.0 | 0.0 | 0.00 | 0.00 | 0.00 | 72 | 4091.5 |
| 20260509025019 | 45 | 122 | 0.0 | 0.0 | 0.00 | 0.00 | 0.00 | 73 | 4091.5 |
| 20260509024516 | 45 | 126 | 0.0 | 1.0 | 0.00 | 0.00 | 0.00 | 71 | 4091.5 |
| 20260509024012 | 45 | 129 | 0.0 | 0.0 | 0.00 | 0.00 | 0.00 | 73 | 4091.5 |
| 20260509023509 | 45 | 137 | 0.0 | 0.0 | 0.00 | 0.00 | 0.00 | 72 | 4091.5 |
| 20260509023006 | 45 | 139 | 0.0 | 0.0 | 0.00 | 0.00 | 0.00 | 72 | 4091.5 |
| 20260509022503 | 45 | 106 | 1.0 | 1.0 | 0.00 | 0.00 | 0.00 | 73 | 4091.5 |
| 20260509022000 | 45 | 134 | 1.0 | 1.0 | 0.00 | 0.00 | 0.00 | 72 | 4091.5 |
| 20260509021457 | 45 | 117 | 0.0 | 0.0 | 0.00 | 0.00 | 0.00 | 72 | 4091.5 |
| 20260509020954 | 44 | 128 | 0.0 | 0.0 | 0.00 | 0.00 | 0.00 | 73 | 4091.5 |
| 20260509020453 | 44 | 130 | 0.0 | 0.0 | 0.00 | 0.00 | 0.00 | 75 | 4091.5 |
| 20260509015949 | 44 | 131 | 0.0 | 0.0 | 0.00 | 0.00 | 0.00 | 75 | 4091.5 |
| 20260509015448 | 44 | 152 | 0.0 | 0.0 | 0.00 | 0.00 | 0.00 | 77 | 4091.5 |
| 20260509014944 | 43 | 152 | 0.0 | 0.0 | 0.00 | 0.00 | 0.00 | 78 | 4091.5 |
| 20260509014441 | 43 | 152 | 0.0 | 0.0 | 0.00 | 0.00 | 0.00 | 80 | 4091.5 |
| 20260509013937 | 43 | 152 | 0.0 | 0.0 | 0.00 | 0.00 | 0.00 | 81 | 4091.5 |
| 20260509013435 | 43 | 152 | 0.0 | 0.0 | 0.00 | 0.00 | 0.00 | 81 | 4091.5 |
| 20260509012930 | 43 | 152 | 0.0 | 0.0 | 0.00 | 0.00 | 0.00 | 80 | 4091.5 |
| 20260509012427 | 43 | 152 | 0.0 | 0.0 | 0.00 | 0.00 | 0.00 | 79 | 4091.5 |
| 20260509011924 | 44 | 152 | 0.0 | 0.0 | 0.00 | 0.00 | 0.00 | 78 | 4091.5 |
| 20260509011421 | 44 | 152 | 0.0 | 0.0 | 0.00 | 0.00 | 0.00 | 77 | 4091.5 |
| 20260509010919 | 44 | 152 | 0.0 | 0.0 | 0.00 | 0.00 | 0.00 | 76 | 4091.5 |
| 20260509010416 | 44 | 152 | 0.0 | 0.0 | 0.00 | 0.00 | 0.00 | 76 | 4091.5 |
| 20260509005913 | 45 | 152 | 0.0 | 0.0 | 0.00 | 0.00 | 0.00 | 75 | 4091.5 |
| 20260509005411 | 45 | 153 | 0.0 | 0.0 | 0.00 | 0.00 | 0.00 | 76 | 4091.5 |
| 20260509004911 | 46 | 154 | 0.0 | 0.0 | 0.00 | 0.00 | 0.00 | 75 | 4091.5 |
| 20260509004408 | 46 | 154 | 0.0 | 0.0 | 0.00 | 0.00 | 0.00 | 74 | 4091.5 |
| 20260509003906 | 46 | 154 | 0.0 | 0.0 | 0.00 | 0.00 | 0.00 | 74 | 4091.5 |
| 20260509003403 | 47 | 164 | 0.0 | 0.0 | 0.00 | 0.00 | 0.00 | 74 | 4091.5 |
| 20260509002900 | 47 | 176 | 0.0 | 0.0 | 0.00 | 0.00 | 0.00 | 76 | 4091.5 |
| 20260509002358 | 47 | 177 | 1.0 | 2.0 | 0.00 | 0.00 | 0.00 | 76 | 4091.5 |